Regional Weather Roundup
Issued by NWS

Home | Current Version | Previous Version | Graphics & Text | Print | Product List | Glossary On
Versions: 1 2 3 4 5 6 7 8 9 10 11 12 13 14 15 16 17 18 19 20 21 22 23 24 25 26 27 28 29 30 31 32 33 34 35 36 37 38 39 40 41 42 43 44 45 46 47 48 49 50
000
ASUS43 KIND 060959
RWRIN

WEATHER ROUNDUP FOR INDIANA
NATIONAL WEATHER SERVICE INDIANAPOLIS IN
500 AM EST TUE DEC 06 2016

NOTE: "FAIR" INDICATES FEW OR NO CLOUDS BELOW 12,000 FEET WITH NO
SIGNIFICANT WEATHER AND/OR OBSTRUCTIONS TO VISIBILITY.

* - STATION DOES NOT REPORT WEATHER SUCH AS PRECIPITATION OR FOG.

+ - STATION NOT QUALITY CONTROLLED BY THE NATIONAL WEATHER SERVICE.
    USE DATA WITH CAUTION...ESPECIALLY DEWPOINT AND RELATIVE
    HUMIDITY OBSERVATIONS.

INZ001>003-010>013-019-020-061100-
NORTHWEST INDIANA

CITY           SKY/WX    TMP DP  RH WIND       PRES   REMARKS
MONTICELLO +   CLOUDY    33  28  84 E5        29.80S WCI  28
RENSSELAER +   CLOUDY    32  32 100 E7        29.81S FOG     WCI  26

$$

LMZ046-743>745-061100-
SOUTHERN LAKE MICHIGAN

STATION/POSITION TIME  TEMP    WIND        PRES    WAVE
                       AIR SEA DIR/SP/G            HT
                 (UTC) (F)     (DEG/KT/KT) (MB)    (FT)
BURNS HARBOR     0940   33      90/  7/ 10 1011.2F

$$

INZ004-005-014>016-021>024-061100-
NORTH CENTRAL INDIANA

CITY           SKY/WX    TMP DP  RH WIND       PRES   REMARKS
GOSHEN         CLOUDY    32  27  81 E9        29.84F WCI  24
SOUTH BEND     PTCLDY    30  28  92 E7        29.85F WCI  23

$$

INZ006>009-017-018-025>027-061100-
NORTHEAST INDIANA

CITY           SKY/WX    TMP DP  RH WIND       PRES   REMARKS
ANGOLA *+      CLEAR     30  25  80 E12       29.86F WCI  21
FORT WAYNE     CLOUDY    31  28  89 E12       29.85F WCI  22
KENDALLVILLE + CLOUDY    32  29  89 E9        29.86F WCI  24

$$

INZ028-029-035-036-043>045-051>053-061100-
WEST CENTRAL INDIANA

CITY           SKY/WX    TMP DP  RH WIND       PRES   REMARKS
CRAWFORDSVL +  CLOUDY    34  34 100 E12G17    29.75F WCI  25
GREENCASTLE +  CLOUDY    36  36 100 E8        29.76F
LAFAYETTE      MOCLDY    34  32  92 E12       29.77F WCI  25
TERRE HAUTE    CLOUDY    39  34  82 E8        29.74F

$$

INZ030>032-037>040-046>048-054>057-064-065-061100-
CENTRAL INDIANA

CITY           SKY/WX    TMP DP  RH WIND       PRES   REMARKS
GREENWOOD *+   CLOUDY    37  33  85 E7        29.77F
INDIANAPOLIS   CLOUDY    38  32  79 E10       29.74F
-EAGLE CREEK   CLOUDY    38  32  79 E6        29.76F
KOKOMO +       CLOUDY    32  30  92 E14       29.80F WCI  22
SHELBYVILLE    CLOUDY    38  32  79 E10       29.75F

$$

INZ033-034-041-042-049-050-058-059-061100-
EAST CENTRAL INDIANA

CITY           SKY/WX    TMP DP  RH WIND       PRES   REMARKS
MUNCIE         CLOUDY    35  30  82 E9        29.81F WCI  28

$$

INZ060-061-067>069-081>083-085>088-061100-
SOUTHWEST INDIANA

CITY           SKY/WX    TMP DP  RH WIND       PRES   REMARKS
EVANSVILLE     LGT RAIN  42  40  92 NE7       29.70F FOG
HUNTINGBURG *+ CLOUDY    43  39  87 NE8       29.69F

$$

INZ062-063-066-070>080-084-089>092-061100-
SOUTH CENTRAL AND SOUTHEAST INDIANA

CITY           SKY/WX    TMP DP  RH WIND       PRES   REMARKS
BLOOMINGTON    LGT RAIN  39  34  82 E7        29.73F
MADISON *+     CLOUDY    37  36  93 E10       29.76F

$$




USA.gov is the U.S. government's official web portal to all federal, state and local government web resources and services.